Location: Middlebury
(44.0153°N, 73.1678°W)
Time: 19:25:59
(UTC-04:00)

DIWATA 2B (PO-101) - Pass Details

Date: 23 June 2024
Orbit: 575 x 586 km, 98.1° (Epoch: 23 July)

Event Time Altitude Azimuth Distance (km) Brightness Sun altitude
Rises 03:14:39 0° 125° (SE) 2,779 ? -15.4°
Reaches altitude 10° 03:17:21 10° 106° (ESE) 1,887 ? -15.1°
Maximum altitude 03:20:04 18° 64° (ENE) 1,464 ? -14.8°
Drops below altitude 10° 03:22:49 10° 22° (NNE) 1,899 ? -14.5°
Sets 03:25:32 0° 3° (N) 2,806 ? -14.3°
